• en France
  • Liste des pays
  • À 7 jours
  • Température de l'eau
  • Carte satellitaire
  • Carte météo
  • Widgets météo
  • user-avatar
    Se connecter

    Météo par heure à Ashilta

    Ce jour, 19 Août, Dimanche

    Heure Température Précipitation Vent Pression Humidité
    00:00 +20°C° 0,4 mm 2 m/s 706 mmHg 76%
    01:00 +19°C° 0 mm 2 m/s 706 mmHg 75%
    02:00 +19°C° 0 mm 2 m/s 706 mmHg 74%
    03:00 +19°C° 0 mm 2 m/s 706 mmHg 72%
    04:00 +19°C° 0 mm 2 m/s 706 mmHg 72%
    05:00 +19°C° 0 mm 2 m/s 706 mmHg 71%
    06:00 +19°C° 0 mm 2 m/s 706 mmHg 71%
    07:00 +21°C° 0 mm 2 m/s 706 mmHg 64%
    08:00 +23°C° 0 mm 2 m/s 707 mmHg 57%
    09:00 +25°C° 0 mm 3 m/s 707 mmHg 50%
    10:00 +26°C° 0 mm 3 m/s 707 mmHg 49%
    11:00 +26°C° 0 mm 3 m/s 707 mmHg 47%
    12:00 +27°C° 0 mm 4 m/s 707 mmHg 46%
    13:00 +26°C° 0,1 mm 4 m/s 707 mmHg 50%
    14:00 +25°C° 0,1 mm 4 m/s 707 mmHg 53%
    15:00 +25°C° 0,1 mm 3 m/s 707 mmHg 57%
    16:00 +24°C° 0,1 mm 3 m/s 707 mmHg 61%
    17:00 +22°C° 0,1 mm 3 m/s 707 mmHg 65%
    18:00 +21°C° 0,1 mm 2 m/s 708 mmHg 69%
    19:00 +20°C° 0 mm 2 m/s 708 mmHg 73%
    20:00 +19°C° 0 mm 1 m/s 708 mmHg 77%
    21:00 +18°C° 0 mm 1 m/s 708 mmHg 82%
    22:00 +18°C° 0 mm 1 m/s 708 mmHg 82%
    23:00 +16°C° 0 mm 1 m/s 708 mmHg 82%

    Demain, 20 Août, Lundi

    Heure Température Précipitation Vent Pression Humidité
    00:00 +16°C° 0 mm 1 m/s 708 mmHg 82%
    01:00 +16°C° 0 mm 1 m/s 708 mmHg 81%
    02:00 +15°C° 0 mm 1 m/s 708 mmHg 79%
    03:00 +15°C° 0 mm 1 m/s 708 mmHg 78%
    04:00 +16°C° 0 mm 1 m/s 709 mmHg 76%
    05:00 +16°C° 0 mm 1 m/s 709 mmHg 74%
    06:00 +16°C° 0 mm 1 m/s 709 mmHg 72%
    07:00 +19°C° 0 mm 1 m/s 710 mmHg 64%
    08:00 +21°C° 0 mm 2 m/s 710 mmHg 56%
    09:00 +24°C° 0 mm 2 m/s 710 mmHg 47%
    10:00 +25°C° 0 mm 2 m/s 710 mmHg 45%
    11:00 +26°C° 0 mm 3 m/s 710 mmHg 43%
    12:00 +27°C° 0 mm 3 m/s 710 mmHg 40%
    13:00 +27°C° 0 mm 3 m/s 710 mmHg 42%
    14:00 +27°C° 0 mm 4 m/s 710 mmHg 43%
    15:00 +27°C° 0 mm 4 m/s 710 mmHg 44%
    16:00 +26°C° 0 mm 4 m/s 710 mmHg 49%
    17:00 +25°C° 0 mm 3 m/s 709 mmHg 54%
    18:00 +22°C° 0 mm 3 m/s 709 mmHg 59%
    19:00 +21°C° 0 mm 3 m/s 709 mmHg 63%
    20:00 +20°C° 0 mm 3 m/s 709 mmHg 67%
    21:00 +18°C° 0 mm 2 m/s 709 mmHg 71%
    22:00 +18°C° 0 mm 2 m/s 709 mmHg 70%
    23:00 +18°C° 0 mm 2 m/s 709 mmHg 70%

    Après-demain, 21 Août, Mardi

    Heure Température Précipitation Vent Pression Humidité
    00:00 +18°C° 0 mm 2 m/s 709 mmHg 69%
    01:00 +18°C° 0 mm 2 m/s 708 mmHg 68%
    02:00 +18°C° 0 mm 2 m/s 708 mmHg 66%
    03:00 +17°C° 0 mm 2 m/s 708 mmHg 65%
    04:00 +18°C° 0 mm 2 m/s 708 mmHg 64%
    05:00 +18°C° 0 mm 2 m/s 708 mmHg 63%
    06:00 +19°C° 0 mm 2 m/s 708 mmHg 62%
    07:00 +21°C° 0 mm 2 m/s 708 mmHg 58%
    08:00 +23°C° 0 mm 2 m/s 708 mmHg 54%
    09:00 +25°C° 0 mm 2 m/s 709 mmHg 50%
    10:00 +26°C° 0 mm 2 m/s 709 mmHg 47%
    11:00 +28°C° 0 mm 3 m/s 709 mmHg 45%
    12:00 +29°C° 0 mm 3 m/s 708 mmHg 43%
    13:00 +29°C° 0,1 mm 3 m/s 708 mmHg 44%
    14:00 +29°C° 0,1 mm 4 m/s 708 mmHg 46%
    15:00 +29°C° 0,1 mm 4 m/s 708 mmHg 48%
    16:00 +27°C° 0,2 mm 3 m/s 708 mmHg 54%
    17:00 +26°C° 0,2 mm 3 m/s 708 mmHg 60%
    18:00 +25°C° 0,2 mm 2 m/s 707 mmHg 66%
    19:00 +24°C° 0,2 mm 2 m/s 707 mmHg 70%
    20:00 +21°C° 0,2 mm 2 m/s 708 mmHg 75%
    21:00 +20°C° 0,2 mm 2 m/s 708 mmHg 80%
    22:00 +20°C° 0 mm 2 m/s 708 mmHg 79%
    23:00 +20°C° 0 mm 2 m/s 707 mmHg 78%

    22 Août, Mercredi

    Heure Température Précipitation Vent Pression Humidité
    00:00 +20°C° 0 mm 2 m/s 707 mmHg 77%
    01:00 +20°C° 0 mm 1 m/s 707 mmHg 76%
    02:00 +20°C° 0 mm 1 m/s 707 mmHg 75%
    03:00 +20°C° 0 mm 1 m/s 707 mmHg 74%
    04:00 +20°C° 0 mm 1 m/s 707 mmHg 73%
    05:00 +21°C° 0 mm 1 m/s 707 mmHg 71%
    06:00 +21°C° 0 mm 1 m/s 707 mmHg 70%
    07:00 +23°C° 0 mm 1 m/s 708 mmHg 64%
    08:00 +25°C° 0 mm 1 m/s 708 mmHg 58%
    09:00 +27°C° 0 mm 1 m/s 708 mmHg 52%
    10:00 +28°C° 0 mm 2 m/s 708 mmHg 50%
    11:00 +29°C° 0 mm 2 m/s 708 mmHg 48%
    12:00 +30°C° 0 mm 3 m/s 708 mmHg 46%
    13:00 +30°C° 0,2 mm 3 m/s 708 mmHg 48%
    14:00 +30°C° 0,2 mm 3 m/s 708 mmHg 49%
    15:00 +30°C° 0,2 mm 3 m/s 708 mmHg 51%
    16:00 +29°C° 0,2 mm 2 m/s 708 mmHg 55%
    17:00 +28°C° 0,2 mm 2 m/s 708 mmHg 59%
    18:00 +27°C° 0,2 mm 2 m/s 708 mmHg 63%
    19:00 +25°C° 0,1 mm 1 m/s 708 mmHg 68%
    20:00 +24°C° 0,1 mm 1 m/s 708 mmHg 72%
    21:00 +22°C° 0,1 mm 1 m/s 709 mmHg 77%
    22:00 +22°C° 0,1 mm 1 m/s 709 mmHg 77%
    23:00 +22°C° 0,1 mm 1 m/s 709 mmHg 77%

    23 Août, Jeudi

    Heure Température Précipitation Vent Pression Humidité
    00:00 +21°C° 0,1 mm 1 m/s 709 mmHg 77%
    01:00 +21°C° 0,1 mm 1 m/s 709 mmHg 77%
    02:00 +21°C° 0,1 mm 1 m/s 709 mmHg 76%
    03:00 +21°C° 0,1 mm 1 m/s 709 mmHg 76%
    04:00 +21°C° 0,1 mm 1 m/s 709 mmHg 75%
    05:00 +21°C° 0,1 mm 1 m/s 709 mmHg 74%
    06:00 +22°C° 0,1 mm 1 m/s 709 mmHg 73%
    07:00 +23°C° 0 mm 1 m/s 710 mmHg 66%
    08:00 +25°C° 0 mm 2 m/s 710 mmHg 60%
    09:00 +27°C° 0 mm 2 m/s 710 mmHg 53%
    10:00 +28°C° 0,1 mm 2 m/s 710 mmHg 51%
    11:00 +29°C° 0,1 mm 3 m/s 710 mmHg 50%
    12:00 +29°C° 0,1 mm 3 m/s 710 mmHg 48%
    13:00 +29°C° 0,5 mm 3 m/s 710 mmHg 48%
    14:00 +29°C° 0,5 mm 3 m/s 709 mmHg 49%
    15:00 +29°C° 0,5 mm 3 m/s 709 mmHg 49%
    16:00 +28°C° 0,3 mm 3 m/s 709 mmHg 53%
    17:00 +27°C° 0,3 mm 2 m/s 709 mmHg 57%
    18:00 +26°C° 0,3 mm 2 m/s 709 mmHg 60%
    19:00 +24°C° 0 mm 2 m/s 710 mmHg 65%
    20:00 +23°C° 0 mm 2 m/s 710 mmHg 69%
    21:00 +22°C° 0 mm 1 m/s 710 mmHg 73%
    22:00 +21°C° 0 mm 1 m/s 710 mmHg 73%
    23:00 +21°C° 0 mm 1 m/s 710 mmHg 73%

    24 Août, Vendredi

    Heure Température Précipitation Vent Pression Humidité
    00:00 +21°C° 0 mm 1 m/s 710 mmHg 73%
    01:00 +21°C° 0 mm 1 m/s 710 mmHg 72%
    02:00 +20°C° 0 mm 1 m/s 709 mmHg 72%
    03:00 +20°C° 0 mm 1 m/s 709 mmHg 71%
    04:00 +20°C° 0 mm 1 m/s 709 mmHg 70%
    05:00 +21°C° 0 mm 1 m/s 710 mmHg 69%
    06:00 +21°C° 0 mm 1 m/s 710 mmHg 68%
    07:00 +23°C° 0 mm 2 m/s 710 mmHg 62%
    08:00 +25°C° 0 mm 2 m/s 710 mmHg 56%
    09:00 +27°C° 0 mm 2 m/s 710 mmHg 49%
    10:00 +28°C° 0 mm 3 m/s 710 mmHg 48%
    11:00 +29°C° 0 mm 3 m/s 710 mmHg 46%
    12:00 +30°C° 0 mm 4 m/s 710 mmHg 44%
    13:00 +30°C° 0 mm 4 m/s 709 mmHg 46%
    14:00 +30°C° 0 mm 4 m/s 709 mmHg 47%
    15:00 +30°C° 0 mm 4 m/s 709 mmHg 48%
    16:00 +29°C° 0 mm 4 m/s 708 mmHg 54%
    17:00 +27°C° 0 mm 3 m/s 708 mmHg 60%
    18:00 +26°C° 0 mm 3 m/s 708 mmHg 65%
    19:00 +25°C° 0 mm 3 m/s 708 mmHg 69%
    20:00 +23°C° 0 mm 2 m/s 708 mmHg 72%
    21:00 +21°C° 0 mm 2 m/s 708 mmHg 76%
    22:00 +21°C° 0 mm 2 m/s 708 mmHg 72%
    23:00 +20°C° 0 mm 2 m/s 708 mmHg 69%
    Voir plus